Weather History for EKKA - November, 2012

Change the Weather History Date:

Friday, November 2, 2012

  Actual Average Record
Temperature  
Mean Temperature 43 °F -  
Max Temperature 45 °F 45 °F - (-1)
Min Temperature 39 °F 32 °F - (-1)
Degree Days  
Heating Degree Days 22    
Moisture  
Dew Point 42 °F    
Average Humidity 93    
Maximum Humidity 100    
Minimum Humidity 81    
Precipitation  
Precipitation 0.16 in - - ()
Sea Level Pressure  
Sea Level Pressure 29.16 in    
Wind  
Wind Speed 8 mph ()    
Max Wind Speed 15 mph    
Max Gust Speed 26 mph    
Visibility 5.7 miles    
Events Rain    
Averages and records for this station are not official NWS values.
T = Trace of Precipitation, MM = Missing Value Source: Averaged Metar Reports

Daily Weather History Graph

Daily Weather History Graph

Search for Another Location

Airport or City:

Trip Planner

Search our weather history database for the weather conditions in past years. The results will help you decide how hot, cold, wet, or windy it might be!

Date:

Astronomy

Nov. 02, 2012 Rise Set
Actual Time 7:34 AM CET 4:39 PM CET
Civil Twilight 6:54 AM CET 5:19 PM CET
Nautical Twilight 6:09 AM CET 6:03 PM CET
Astronomical Twilight 5:25 AM CET 6:47 PM CET
Moon 6:46 PM CET (11/2) 11:08 AM CET (11/2)
Length of Visible Light 10h 25m
Length of Day
9h 04m
Waning Gibbous, 89% of the Moon is Illuminated
Nov 2
Waning Gibbous
Nov 7
Last Quarter
Nov 13
New
Nov 20
First Quarter
Nov 28
Full

Hourly Weather History & Observations

Time (CET) Temp. Windchill Dew Point Humidity Pressure Visibility Wind Dir Wind Speed Gust Speed Precip Events Conditions
12:20 AM 44.6 °F 39.7 °F 44.6 °F 100% 28.91 in 2.5 mi South 9.2 mph - N/A Rain Light Rain
12:50 AM 44.6 °F 40.2 °F 44.6 °F 100% 28.91 in 2.5 mi South 8.1 mph - N/A Rain Rain
1:00 AM 45 °F - 44 °F 96% 28.95 in 2 mi South 9.2 mph - - Rain Rain
1:20 AM 44.6 °F 40.7 °F 44.6 °F 100% 28.94 in 2.5 mi South 6.9 mph - N/A Rain Rain
1:51 AM 44.6 °F 39.7 °F 44.6 °F 100% 28.94 in 3.1 mi South 9.2 mph - N/A Rain Light Rain
2:20 AM 44.6 °F 39.7 °F 42.8 °F 93% 28.94 in 3.1 mi South 9.2 mph - N/A Rain Light Rain
2:50 AM 44.6 °F 40.2 °F 44.6 °F 100% 28.94 in 3.1 mi South 8.1 mph - N/A Rain Light Rain
3:20 AM 44.6 °F 40.7 °F 42.8 °F 93% 28.94 in 3.1 mi SSW 6.9 mph - N/A Rain Light Rain
3:53 AM 44.6 °F 40.2 °F 44.6 °F 100% 28.97 in 2.2 mi South 8.1 mph - N/A Rain Light Rain
4:00 AM 44 °F - 44 °F 98% 28.99 in 2 mi South 9.2 mph - - Rain Light Rain
4:21 AM 44.6 °F 39.2 °F 42.8 °F 93% 28.97 in 3.1 mi SSW 10.4 mph - N/A Rain Light Rain
4:50 AM 44.6 °F 40.2 °F 42.8 °F 93% 29.00 in 3.1 mi SSW 8.1 mph - N/A Rain Light Rain
5:20 AM 44.6 °F 39.7 °F 42.8 °F 93% 29.00 in 3.1 mi SSW 9.2 mph - N/A Rain Rain
5:50 AM 42.8 °F 37.5 °F 42.8 °F 100% 29.03 in 3.1 mi SSW 9.2 mph 20.7 mph N/A Rain Rain
6:20 AM 42.8 °F 35.8 °F 41.0 °F 93% 29.06 in 3.7 mi WSW 13.8 mph - N/A Rain Light Rain
6:51 AM 42.8 °F 39.3 °F 41.0 °F 93% 29.06 in 6.2 mi SW 5.8 mph - N/A   Mostly Cloudy
7:00 AM 42 °F - 41 °F 97% 29.09 in 16 mi SSW 4.6 mph - - Rain Light Rain
7:21 AM 42.8 °F 39.3 °F 41.0 °F 93% 29.09 in 6.2 mi South 5.8 mph - N/A Rain Light Rain Showers
7:51 AM 41.0 °F 36.4 °F 41.0 °F 100% 29.09 in 6.2 mi South 6.9 mph - N/A   Scattered Clouds
8:21 AM 41.0 °F 36.4 °F 39.2 °F 93% 29.12 in - South 6.9 mph - N/A   Clear
8:51 AM 41.0 °F 35.8 °F 41.0 °F 100% 29.12 in 6.2 mi South 8.1 mph - N/A   Scattered Clouds
9:21 AM 42.8 °F 37.5 °F 41.0 °F 93% 29.15 in 6.2 mi South 9.2 mph - N/A   Mostly Cloudy
9:50 AM 42.8 °F 35.8 °F 41.0 °F 93% 29.18 in 6.2 mi SSW 13.8 mph 26.5 mph N/A Rain Light Rain Showers
10:00 AM 42 °F - 40 °F 89% 29.20 in 6 mi SSW 15.0 mph - - Rain Heavy Rain Showers
10:20 AM 42.8 °F 37.5 °F 39.2 °F 87% 29.18 in 6.2 mi South 9.2 mph 20.7 mph N/A   Mostly Cloudy
10:51 AM 44.6 °F 40.2 °F 42.8 °F 93% 29.18 in 6.2 mi SSE 8.1 mph - N/A   Scattered Clouds
11:20 AM 44.6 °F 39.2 °F 42.8 °F 93% 29.18 in 6.2 mi South 10.4 mph - N/A   Scattered Clouds
11:50 AM 44.6 °F 38.8 °F 41.0 °F 87% 29.21 in 6.2 mi South 11.5 mph - N/A   Scattered Clouds
12:20 PM 44.6 °F 39.2 °F 41.0 °F 87% 29.21 in 6.2 mi South 10.4 mph - N/A   Mostly Cloudy
12:50 PM 46.4 °F 40.7 °F 41.0 °F 81% 29.21 in 6.2 mi South 12.7 mph - N/A   Scattered Clouds
1:00 PM 45 °F - 41 °F 81% 29.23 in 16 mi South 12.7 mph - -   Mostly Cloudy
1:20 PM 44.6 °F 38.4 °F 41.0 °F 87% 29.21 in 6.2 mi South 12.7 mph - N/A   Scattered Clouds
1:50 PM 42.8 °F 36.2 °F 41.0 °F 93% 29.24 in 6.2 mi South 12.7 mph - N/A Rain Light Rain Showers
2:20 PM 42.8 °F 37.5 °F 41.0 °F 93% 29.24 in 5.6 mi South 9.2 mph - N/A Rain Light Rain Showers
2:50 PM 42.8 °F 37.5 °F 41.0 °F 93% 29.24 in 6.2 mi South 9.2 mph - N/A   Mostly Cloudy
3:20 PM 44.6 °F 40.2 °F 42.8 °F 93% 29.24 in 6.2 mi South 8.1 mph - N/A   Mostly Cloudy
3:50 PM 44.6 °F 38.8 °F 41.0 °F 87% 29.24 in 6.2 mi South 11.5 mph - N/A   Mostly Cloudy
4:00 PM 44 °F - 41 °F 87% 29.26 in 12 mi South 10.4 mph - -   Mostly Cloudy
4:20 PM 42.8 °F 37.0 °F 41.0 °F 93% 29.24 in 6.2 mi South 10.4 mph - N/A   Scattered Clouds
4:50 PM 42.8 °F 37.5 °F 41.0 °F 93% 29.27 in 6.2 mi South 9.2 mph - N/A   Mostly Cloudy
5:20 PM 42.8 °F 38.0 °F 41.0 °F 93% 29.27 in 6.2 mi South 8.1 mph - N/A   Mostly Cloudy
5:50 PM 42.8 °F 38.0 °F 41.0 °F 93% 29.27 in 6.2 mi South 8.1 mph - N/A   Mostly Cloudy
6:20 PM 42.8 °F 39.3 °F 41.0 °F 93% 29.27 in 6.2 mi South 5.8 mph - N/A   Mostly Cloudy
6:50 PM 42.8 °F 38.0 °F 41.0 °F 93% 29.27 in 6.2 mi South 8.1 mph - N/A   Scattered Clouds
7:00 PM 43 °F - 41 °F 88% 29.29 in 12 mi South 9.2 mph - -   Partly Cloudy
7:20 PM 42.8 °F 37.0 °F 41.0 °F 93% 29.27 in 6.2 mi South 10.4 mph - N/A   Mostly Cloudy
7:51 PM 42.8 °F 37.5 °F 41.0 °F 93% 29.30 in 6.2 mi South 9.2 mph - N/A   Mostly Cloudy
8:20 PM 42.8 °F 36.2 °F 41.0 °F 93% 29.30 in 6.2 mi South 12.7 mph - N/A Rain Light Rain Showers
8:51 PM 42.8 °F 36.2 °F 41.0 °F 93% 29.30 in 6.2 mi South 12.7 mph - N/A Rain Light Rain Showers
9:20 PM 41.0 °F 35.2 °F 41.0 °F 100% 29.33 in 6.2 mi South 9.2 mph - N/A Rain Light Rain Showers
9:50 PM 41.0 °F 35.8 °F 39.2 °F 93% 29.33 in 4.3 mi South 8.1 mph - N/A Rain Light Rain Showers
10:00 PM 41 °F - 40 °F 94% 29.33 in 4 mi SSE 6.9 mph - - Rain Light Rain Showers
10:22 PM 41.0 °F 38.0 °F 39.2 °F 93% 29.30 in 6.2 mi SSE 4.6 mph - N/A   Mostly Cloudy
10:50 PM 41.0 °F 36.4 °F 39.2 °F 93% 29.30 in 6.2 mi SE 6.9 mph - N/A   Mostly Cloudy
11:20 PM 39.2 °F 35.9 °F 39.2 °F 100% 29.30 in 6.2 mi SE 4.6 mph - N/A   Mostly Cloudy